カタログに戻る

STARLINK-35101

運用中通信VLEO
NORAD 65700·PAYLOAD·🇺🇸 United States

打ち上げ Sep 21, 2025 から Cape Canaveral Space Force Station

Loading…

次のパス (今後24時間)

TLE

最新Source: CelesTrak SupGP

元期: Sep 15, 2026, 02:56 UTC

1 65700C 25212AA  26258.12270833  .00028918  00000+0  85454-3 0  2583
2 65700  53.1574 181.2080 0001304  88.0840 176.8792 15.34370625    18

AllMySatでSTARLINK-35101をリアルタイム追跡

Download on the App Store